Location: Ailingen
(47.6833°N, 9.5000°E)
Time: 12:09:54
(UTC+00:00)

CZ-2D R/B - Pass Details

Date: 18 November 2025
Orbit: 526 x 597 km, 98.0° (Epoch: 06 December)

Event Time Altitude Azimuth Distance (km) Brightness Sun altitude
Rises 17:44:14 0° 172° (S) 2,785 6.9 -20.3°
Reaches altitude 10° 17:46:23 10° 175° (S) 1,901 6.1 -20.7°
Maximum altitude 17:50:29 65° 258° (WSW) 652 3.8 -21.4°
Drops below altitude 10° 17:54:42 10° 341° (NNW) 1,944 6.3 -22.1°
Sets 17:56:54 0° 344° (NNW) 2,855 7.1 -22.5°
